EW0036 Weather Reports


Display with metric or nautical units.
time (UTC)temp
F
wind
direction
speed
MPH
gust
MPH
rain 1hr
in
rain 24hr
in
rain mn
in
humidity
%
barometer
mb
20180718011453 66 179 0.0 0.0 0.00 0.03 0.00 98 999.0
20180718010452 66 179 0.0 1.0 0.00 0.03 0.00 98 999.0
20180718005451 66 177 0.0 1.0 0.00 0.03 0.00 98 999.0
20180718004449 66 207 0.0 1.0 0.00 0.03 0.00 98 999.0
20180718003443 66 207 0.0 0.0 0.00 0.03 0.00 98 999.3
20180718002441 66 207 0.0 0.0 0.00 0.03 0.00 98 999.3
20180718001435 66 207 0.0 0.0 0.00 0.03 0.00 98 999.3
20180718000433 66 207 0.0 0.0 0.00 0.03 0.00 98 999.3
20180717235432 66 207 0.0 0.0 0.00 0.03 0.00 98 999.3
20180717234430 66 207 0.0 0.0 0.00 0.03 0.00 98 999.3
20180717233428 66 207 0.0 0.0 0.00 0.03 0.00 98 999.3
20180717232428 66 207 0.0 0.0 0.00 0.03 0.00 98 999.3
20180717231426 66 207 0.0 0.0 0.00 0.03 0.00 98 999.3
20180717230425 66 207 0.0 0.0 0.00 0.03 0.00 98 999.3
20180717225423 66 207 0.0 0.0 0.00 0.03 0.00 98 999.3
20180717224422 66 207 0.0 0.0 0.00 0.03 0.00 98 999.3
20180717223421 65 207 0.0 0.0 0.00 0.03 0.00 98 999.7
20180717222419 66 207 0.0 0.0 0.00 0.03 0.00 98 999.3
20180717221418 65 207 0.0 0.0 0.00 0.03 0.00 98 999.3
20180717220417 65 207 0.0 0.0 0.00 0.03 0.00 97 999.3
20180717215415 65 207 0.0 0.0 0.00 0.03 0.00 97 999.3
20180717214413 65 207 0.0 0.0 0.00 0.03 0.00 97 999.3
20180717213411 65 207 0.0 0.0 0.00 0.03 0.00 97 999.3
20180717212409 65 207 0.0 0.0 0.00 0.03 0.00 97 999.7
20180717211408 66 207 0.0 0.0 0.00 0.03 0.00 97 999.3
20180717210405 66 207 0.0 0.0 0.00 0.03 0.00 97 999.7
20180717205358 66 207 0.0 0.0 0.00 0.03 0.02 96 999.3
20180717204347 66 207 0.0 1.0 0.00 0.03 0.02 96 999.3
20180717203324 66 207 1.0 1.0 0.00 0.03 0.02 96 999.3
20180717202316 66 207 0.0 0.0 0.00 0.03 0.02 96 999.3
20180717201313 66 207 0.0 0.0 0.00 0.03 0.02 96 999.3
20180717200307 67 207 0.0 0.0 0.00 0.03 0.02 95 999.3
20180717195259 67 207 0.0 1.0 0.00 0.03 0.02 95 999.3
20180717194245 67 207 0.0 1.0 0.00 0.03 0.02 95 999.7
20180717193236 67 207 1.0 1.0 0.00 0.03 0.02 95 999.7
20180717192228 67 206 0.0 0.0 0.00 0.03 0.02 95 999.7
20180717191223 67 205 0.0 1.0 0.00 0.03 0.02 95 999.7
20180717190214 68 205 0.0 1.0 0.00 0.03 0.02 95 999.7
20180717185212 68 205 0.0 1.0 0.00 0.03 0.02 94 999.7
20180717184211 68 205 0.0 1.0 0.00 0.03 0.02 94 999.7
20180717183209 68 205 0.0 1.0 0.00 0.03 0.02 94 999.7
20180717182204 68 159 0.0 1.0 0.00 0.03 0.02 94 999.7
20180717181203 68 159 0.0 0.0 0.00 0.03 0.02 94 999.7
20180717180202 68 160 0.0 0.0 0.00 0.03 0.02 94 1000.0
20180717175201 68 159 0.0 1.0 0.00 0.03 0.02 94 1000.0
20180717174200 69 159 0.0 1.0 0.00 0.03 0.02 93 1000.0
20180717173159 69 159 0.0 1.0 0.02 0.03 0.02 92 999.7
20180717172157 69 159 0.0 1.0 0.03 0.03 0.02 91 1000.0
20180717171156 69 195 0.0 1.0 0.03 0.03 0.02 90 1000.0
20180717170154 70 195 0.0 1.0 0.03 0.03 0.02 90 1000.0
20180717165152 70 194 0.0 2.0 0.03 0.03 0.02 89 999.7
20180717164151 71 139 0.0 3.0 0.03 0.03 0.02 87 999.7
20180717163150 72 162 0.0 4.0 0.01 0.01 0.01 84 999.7
20180717162148 72 165 2.0 4.0 0.00 0.00 0.00 80 999.7
20180717161147 73 153 0.0 2.0 0.00 0.00 0.00 78 999.7
20180717160146 73 156 1.0 2.0 0.00 0.00 0.00 77 999.7
20180717155145 74 150 0.0 1.0 0.00 0.00 0.00 77 999.7
20180717154144 74 146 0.0 1.0 0.00 0.00 0.00 77 999.7
20180717153143 74 163 0.0 1.0 0.00 0.00 0.00 76 999.3
20180717152141 74 108 0.0 1.0 0.00 0.00 0.00 77 999.7
20180717151140 74 232 0.0 1.0 0.00 0.00 0.00 77 999.7
20180717150139 74 148 0.0 1.0 0.00 0.00 0.00 77 999.7
20180717145137 74 146 0.0 1.0 0.00 0.00 0.00 75 999.7
20180717144137 74 152 1.0 1.0 0.00 0.00 0.00 76 999.7
20180717143135 74 217 0.0 1.0 0.00 0.00 0.00 76 999.7
20180717142134 75 18 1.0 2.0 0.00 0.00 0.00 76 999.7
20180717141132 76 210 1.0 3.0 0.00 0.00 0.00 73 999.7
20180717140131 77 188 0.0 2.0 0.00 0.00 0.00 71 999.7
20180717135130 78 339 0.0 2.0 0.00 0.00 0.00 66 999.3
20180717134128 78 336 1.0 2.0 0.00 0.00 0.00 63 999.7
20180717133127 77 318 1.0 2.0 0.00 0.00 0.00 65 999.3
20180717132126 77 315 1.0 2.0 0.00 0.00 0.00 64 999.7
20180717131125 77 58 1.0 3.0 0.00 0.00 0.00 64 999.7
20180717130124 78 83 1.0 3.0 0.00 0.00 0.00 63 999.7
20180717125123 78 5 1.0 2.0 0.00 0.00 0.00 61 999.7
20180717124122 79 329 0.0 2.0 0.00 0.00 0.00 61 999.7
20180717123120 78 160 1.0 1.0 0.00 0.00 0.00 63 999.7
20180717122119 78 160 0.0 1.0 0.00 0.00 0.00 62 999.7
20180717121118 77 160 0.0 1.0 0.00 0.00 0.00 67 999.7
20180717120117 77 16 0.0 1.0 0.00 0.00 0.00 63 999.7
20180717115115 77 355 0.0 1.0 0.00 0.00 0.00 67 999.7
20180717114115 77 355 0.0 3.0 0.00 0.00 0.00 67 1000.0
20180717113114 77 352 0.0 3.0 0.00 0.00 0.00 65 1000.0
20180717112112 79 354 1.0 4.0 0.00 0.00 0.00 61 1000.0
20180717111111 79 342 2.0 4.0 0.00 0.00 0.00 62 1000.0
20180717110109 80 337 2.0 3.0 0.00 0.00 0.00 62 1000.0
20180717105107 79 322 1.0 3.0 0.00 0.00 0.00 63 1000.0
20180717104106 77 133 1.0 3.0 0.00 0.00 0.00 71 1000.0
20180717103105 76 7 1.0 4.0 0.00 0.00 0.00 69 1000.3
20180717102103 77 21 2.0 2.0 0.00 0.00 0.00 70 1000.0
20180717101102 77 20 1.0 3.0 0.00 0.00 0.00 69 1000.0
20180717100100 77 315 0.0 4.0 0.00 0.00 0.00 70 1000.0
20180717095058 76 211 1.0 4.0 0.00 0.00 0.00 73 1000.3
20180717094057 77 340 1.0 6.0 0.00 0.00 0.00 68 1000.3
20180717093056 77 298 1.0 6.0 0.00 0.00 0.00 69 1000.3
20180717092054 76 352 2.0 4.0 0.00 0.00 0.00 72 1000.3
20180717091053 75 181 0.0 5.0 0.00 0.00 0.00 74 1000.3
20180717090051 75 2 1.0 6.0 0.00 0.00 0.00 71 1000.3
20180717085049 76 9 2.0 6.0 0.00 0.00 0.00 71 1000.3
20180717084048 77 32 1.0 6.0 0.00 0.00 0.00 72 1000.3
20180717083046 76 331 1.0 2.0 0.00 0.00 0.00 72 1000.3
20180717082045 76 315 1.0 3.0 0.00 0.00 0.00 73 1000.3
20180717081043 76 164 1.0 3.0 0.00 0.00 0.00 76 1000.3
20180717080042 75 284 0.0 4.0 0.00 0.00 0.00 76 1000.3
20180717075040 75 336 1.0 4.0 0.00 0.00 0.00 74 1000.3
20180717074039 75 15 2.0 4.0 0.00 0.00 0.00 75 1000.7
20180717073037 75 1 1.0 4.0 0.00 0.00 0.00 78 1000.7
20180717072035 74 21 1.0 4.0 0.00 0.00 0.00 75 1000.3
20180717071034 75 29 2.0 4.0 0.00 0.00 0.00 73 1000.3
20180717070033 75 128 1.0 4.0 0.00 0.00 0.00 75 1000.3
20180717065031 74 134 1.0 4.0 0.00 0.00 0.00 76 1000.3
20180717064030 74 27 1.0 2.0 0.00 0.00 0.00 76 1000.3
20180717063029 73 157 1.0 3.0 0.00 0.00 0.00 78 1000.3
20180717062027 73 311 1.0 3.0 0.00 0.00 0.00 77 1000.3
20180717061025 73 315 0.0 2.0 0.00 0.00 0.00 79 1000.7
20180717060024 73 336 1.0 3.0 0.00 0.00 0.00 78 1000.3
20180717055022 72 104 0.0 3.0 0.00 0.00 0.00 80 1000.7
20180717054020 72 178 1.0 3.0 0.00 0.00 0.00 80 1000.7
20180717053019 71 179 1.0 2.0 0.00 0.00 0.00 82 1000.7
20180717052018 69 183 2.0 2.0 0.00 0.00 0.00 85 1000.7
20180717051017 69 158 0.0 2.0 0.00 0.00 0.00 85 1000.7
20180717050015 68 129 0.0 2.0 0.00 0.00 0.00 86 1000.7
20180717045014 68 190 1.0 2.0 0.00 0.00 0.00 87 1000.7
20180717044013 67 190 1.0 2.0 0.00 0.00 0.00 87 1001.0
20180717043008 67 285 1.0 2.0 0.00 0.00 0.00 88 1001.0
20180717042007 67 156 0.0 2.0 0.00 0.00 0.00 88 1001.0
20180717041006 66 145 1.0 1.0 0.00 0.00 0.00 89 1001.0
20180717040004 66 202 0.0 1.0 0.00 0.00 0.00 89 1001.0
20180717035003 65 144 1.0 1.0 0.00 0.00 0.00 90 1001.0
20180717034001 65 191 0.0 1.0 0.00 0.00 0.00 90 1001.0
20180717033000 65 56 1.0 1.0 0.00 0.00 0.00 90 1000.7
20180717031959 65 167 1.0 1.0 0.00 0.00 0.00 91 1000.7
20180717030957 65 194 0.0 1.0 0.00 0.00 0.00 91 1001.0
20180717025956 65 160 0.0 1.0 0.00 0.00 0.00 91 1001.0
20180717023953 64 150 0.0 2.0 0.00 0.00 0.00 91 1001.0
20180717022952 64 192 1.0 2.0 0.00 0.00 0.00 91 1001.0
20180717021950 64 191 0.0 2.0 0.00 0.00 0.00 91 1001.0
20180717020949 64 152 1.0 2.0 0.00 0.00 0.00 91 1001.0
20180717015948 64 165 0.0 1.0 0.00 0.00 0.00 90 1001.0
20180717014947 64 181 0.0 2.0 0.00 0.00 0.00 90 1001.0
20180717013945 64 177 1.0 1.0 0.00 0.00 0.00 90 1001.0
20180717012932 64 136 1.0 1.0 0.00 0.00 0.00 89 1001.4
20180717011930 65 169 0.0 2.0 0.00 0.00 0.00 89 1001.4